Regional Weather Roundup
Issued by NWS Sterling, VA

Home | Current Version | Previous Version | Text Only | Print | Product List | Glossary On
Versions: 1 2 3 4 5 6 7 8 9 10 11 12 13 14 15 16 17 18 19 20 21 22 23 24 25 26 27 28 29 30 31 32 33 34 35 36 37 38 39 40 41 42 43 44 45 46 47 48 49 50
000
ASUS41 KLWX 040110
RWRLWX

REGIONAL WEATHER ROUNDUP
NATIONAL WEATHER SERVICE BALTIMORE MD/WASHINGTON DC
900 PM EDT SUN MAY 03 2015

Note: "FAIR" indicates few or no clouds below 12,000 feet
with no significant weather and/or obstructions to visibility.
 TC=TEMPERATURE CELSIUS

 * =Non NWS site. Station does not report precipitation (e.g. rain,
    snow, etc.), thunder, or fog.

DCZ001-MDZ009-015-VAZ040>042-051-053>054-040200-
WASHINGTON METRO

CITY           SKY/WX    TMP DP  RH WIND       PRES   REMARKS
WASHINGTON NAT PTCLDY    70  51  51 S7        30.11R
DULLES         PTCLDY    67  43  41 S3        30.11R
ANDREWS AFB    CLEAR     65  47  51 S5        30.11R
FT BELVOIR     CLEAR     61  53  73 CALM      30.12R
QUANTICO       CLEAR     66  51  58 NW5       30.13R
COLLEGE PARK*  CLEAR     64  46  52 CALM      30.11R
LEESBURG*      CLEAR     68  46  45 SW5       30.12R
GAITHERSBURG*  CLEAR     64  45  48 CALM      30.15R

$$

MDZ006>007-011-014-040200-
BALTIMORE METRO

CITY           SKY/WX    TMP DP  RH WIND       PRES   REMARKS
BWI AIRPORT    PTCLDY    69  42  37 S3        30.11R
MD SCIENCE CTR   N/A     73  40  30 MISG      30.11R
MARTIN STATE   PTCLDY    70  45  40 S5        30.12R
ANNAPOLIS      CLEAR     68  43  40 S5        30.11R
FORT MEADE*    CLEAR     61  50  67 CALM      30.13R

$$

MDZ012-015-019>023-040200-
MARYLAND EASTERN SHORE

CITY           SKY/WX    TMP DP  RH WIND       PRES   REMARKS
OCEAN CITY     CLEAR     55  53  93 CALM      30.14R FOG
SALISBURY      CLEAR     60  52  74 SE3       30.14R
BAY BRIDGE AP*   N/A    N/A N/A N/A S5        30.12R
CAMBRIDGE*     CLEAR     68  46  45 CALM      30.13R
EASTON*        CLEAR     68  46  45 CALM      30.16R

$$

MDZ017>025-040200-
SOUTHERN MARYLAND

CITY           SKY/WX    TMP DP  RH WIND       PRES   REMARKS
PATUXENT RIVER CLEAR     66  43  43 S7        30.13R
ST INIGOES     CLEAR     68  47  46 SE6       30.13R
LEONARDTOWN*   CLEAR     68  37  32 S5        30.15R

$$

MDZ003>005-040200-
NORTH CENTRAL MARYLAND

CITY           SKY/WX    TMP DP  RH WIND       PRES   REMARKS
FREDERICK*     CLEAR     68  41  37 SE5       30.13
HAGERSTOWN APT CLEAR     69  42  37 S6        30.10R
WESTMINSTER*   CLEAR     72  39  30 S3        30.12R

$$

MDZ501>502-040200-
WESTERN MARYLAND

CITY           SKY/WX    TMP DP  RH WIND       PRES   REMARKS
OAKLAND*       CLEAR     61  36  39 CALM      30.19R
CUMBERLAND*    CLEAR     70  39  32 CALM      30.15R

$$

VAZ025>031-040200-
SHENANDOAH VALLEY

CITY           SKY/WX    TMP DP  RH WIND       PRES   REMARKS
WINCHESTER*    CLEAR     64  41  42 CALM      30.12R
FRONT ROYAL*   CLOUDY    68  43  40 CALM      30.12R
LURAY*         FAIR      64  48  55 CALM      30.14R
NEW MARKET*    MOCLDY    59  48  67 CALM      30.12R
STAUNTON*      CLEAR     66  39  36 S3        30.17R
WAYNESBORO*    FAIR      64  40  41 CALM      30.16R

$$

WVZ021-048>050-054>055-040200-
EASTERN WEST VIRGINIA PANHANDLE

CITY           SKY/WX    TMP DP  RH WIND       PRES   REMARKS
MARTINSBURG    CLEAR     64  44  48 S3        30.11R
PETERSBURG*    PTCLDY    58  48  67 NW5       30.14R

$$

VAZ036>039-050-040200-
CENTRAL FOOTHILLS

CITY           SKY/WX    TMP DP  RH WIND       PRES   REMARKS
CHARLOTTESVILL CLEAR     68  41  37 S6        30.13R
CULPEPER*      NOT AVBL
ORANGE*        CLEAR     61  50  67 CALM      30.15R
GORDONSVILLE*  FAIR      60  48  64 CALM      30.13R
WARRENTON*     FAIR      58  52  78 CALM      30.12R

$$

VAZ055>057-040200-
NORTH AND CENTRAL PIEDMONT

CITY           SKY/WX    TMP DP  RH WIND       PRES   REMARKS
FREDERICKSBRG* PTCLDY    67  50  54 CALM      30.12R
STAFFORD*      FAIR      62  46  57 CALM      30.17R

$$

NCZ024-NYZ072-PAZ021-071-VAZ022-071-040200-
OTHER REGIONAL OBSERVATIONS

CITY           SKY/WX    TMP DP  RH WIND       PRES   REMARKS
NEW YORK CITY  PTCLDY    67  38  34 VRB5      30.13R
PHILADELPHIA   CLEAR     68  41  37 S9        30.11R
PITTSBURGH     PTCLDY    70  41  34 S3        30.11R
ROANOKE        PTCLDY    65  43  44 SE5       30.18R
RICHMOND       MOCLDY    67  47  48 SE3       30.14R
RALEIGH        PTCLDY    64  51  62 CALM      30.17R

$$

ANZ530>537-040200-
MARINE OBSERVATIONS

STATION/POSITION TIME  TEMP    WIND        PRES
                       AIR SEA DIR/SP/G
                 (UTC) (F)     (DEG/KT/KT) (MB)
THOMAS PT LIGHT  0100   65 61  180/ 11/ 11 1020.4R
BALT KEY BRIDGE  0000   72     170/  9/ 10 1018.8R
COVE POINT       0000   70     200/ 11/ 12 1020.3R
LEWISETTA        0000   71 64              1019.8R
SOLOMONS ISLAND  0000      62                N/A
PINEY POINT      0006          180/  9/ 10   N/A

$$



USA.gov is the U.S. government's official web portal to all federal, state and local government web resources and services.